logo
App data

Alien Shooter

Your mission is simple: clear the base at all costs. You will be provided with explosives to help you gain access to the teleports from where thousands of pitiless creatures pour.
Store | Hub | SteamDB | Site
Developer: Sigma Team Inc. Publisher: Sigma Team Inc.
Genre: Action, Indie, RPG
Languages: English, Russian
Tags: Shooter (172), Action (167), Blood (162), Aliens (152), Horror (148), Gore (145), Action RPG (136), Sci-fi (135), Top-Down (135), Singleplayer (134), Isometric (131), RPG (127), Beat 'em up (121), Looter Shooter (116), Top-Down Shooter (116), Indie (111), Atmospheric (96), Arcade (96), Arena Shooter (84), Rogue-like (81)
Category: Single-player, Steam Achievements, Steam Trading Cards, Partial Controller Support, Steam Cloud, Steam Leaderboards
Release date: Sep 15, 2003
Price: $4.99
Old userscore: 94% Owners: 500,000 .. 1,000,000
Followers: 4,497
Peak concurrent players yesterday: 76
YouTube stats: 40 new videos uploaded yesterday.
Playtime in the last 2 weeks: 01:02 (average) 01:02 (median)
Playtime total: 02:22 (average) 02:36 (median)

Steam Spy is still in beta, so expect major bugs.

Owners data:

Access restricted.

This feature is only available to users with special access rights. Sorry.

If you want to proceed, you need to register or log in first and then back Steam Spy on Patreon. Look for Indie or Pro pledge.

Don't forget to use the same email as on Steam Spy!

If you've recently backed Steam Spy on Patreon, please note, that it might take around 15 minutes for your access rights to sync. In most cases you'll need to re-login on Steam Spy too.

Audience in 2 weeks:

Access restricted.

This feature is only available to users with special access rights. Sorry.

If you want to proceed, you need to register or log in first and then back Steam Spy on Patreon. Look for Indie or Pro pledge.

Don't forget to use the same email as on Steam Spy!

If you've recently backed Steam Spy on Patreon, please note, that it might take around 15 minutes for your access rights to sync. In most cases you'll need to re-login on Steam Spy too.

Peak daily concurrent players:

CCU data courtesy of SteamDB. Used with permission.

Hourly concurrent players:

Daily Twitch stats:

Hourly Twitch stats:

Followers over time

Access restricted.

This feature is only available to users with special access rights. Sorry.

If you want to proceed, you need to register or log in first and then back Steam Spy on Patreon. Look for Indie or Pro pledge.

Don't forget to use the same email as on Steam Spy!

If you've recently backed Steam Spy on Patreon, please note, that it might take around 15 minutes for your access rights to sync. In most cases you'll need to re-login on Steam Spy too.

Views for top 50 videos on YouTube for this game:

Games similar to this one:

# Game Release date
Price
Score rank
(Userscore / Metascore)
Owners
Players
Playtime (Median)
1 The Ship: Single Player Nov 20, 2006 $9.99N/A (N/A)200,000 .. 500,0000%00:00 (00:00)
2 Alpha Prime Nov 7, 2007 $4.99N/A (N/A/59%)200,000 .. 500,0000%00:00 (00:00)
3 Painkiller Overdose Oct 30, 2007 $4.99N/A (N/A/65%)100,000 .. 200,0000%00:00 (00:00)
4 Judge Dredd: Dredd vs. Death Feb 28, 2005 $7.99N/A (N/A/55%)50,000 .. 100,0000%00:00 (00:00)
5 Project: Snowblind Feb 22, 2005 $5.99N/A (N/A/76%)100,000 .. 200,0000%00:00 (00:00)
6 Conflict: Denied Ops Feb 8, 2008 $5.99N/A (N/A/58%)100,000 .. 200,0000%00:00 (00:00)
7 QUAKE Mission Pack 1: Scourge of Armagon Feb 28, 1997 N/AN/A (N/A)50,000 .. 100,0000%00:00 (00:00)
8 Frontlines: Fuel of War Feb 29, 2008 $19.99N/A (N/A/73%)200,000 .. 500,0000%00:00 (00:00)
9 TimeShift Oct 30, 2007 $19.99N/A (N/A/71%)100,000 .. 200,0000%00:00 (00:00)
10 The Club Feb 20, 2008 $14.99N/A (N/A/67%)20,000 .. 50,0000%00:00 (00:00)
11 Larva Mortus Mar 19, 2009 $2.99N/A (N/A/64%)100,000 .. 200,0000%00:00 (00:00)
12 Exodus from the Earth Oct 24, 2008 $14.99N/A (N/A)50,000 .. 100,0000%00:00 (00:00)
13 Unreal 2: The Awakening Feb 3, 2003 N/AN/A (N/A/75%)200,000 .. 500,0000%00:00 (00:00)
14 Prince of Persia: Warrior Within Nov 21, 2008 $9.99N/A (N/A/83%)200,000 .. 500,0000%00:00 (00:00)
15 Prince of Persia: The Two Thrones Nov 21, 2008 $9.99N/A (N/A/85%)200,000 .. 500,0000%00:00 (00:00)
16 Tom Clancy's Rainbow Six Vegas Dec 12, 2006 $9.99N/A (N/A/85%)100,000 .. 200,0000%00:00 (00:00)
17 Tom Clancy's Ghost Recon Desert Siege Mar 26, 2002 $4.99N/A (N/A/82%)20,000 .. 50,0000%00:00 (00:00)
18 Tom Clancy's Rainbow Six Lockdown Feb 14, 2006 $9.99N/A (N/A/59%)200,000 .. 500,0000%00:00 (00:00)
19 Legendary Dec 1, 2008 $4.99N/A (N/A/50%)200,000 .. 500,0000%00:00 (00:00)
20 Rocket Knight May 11, 2010 $14.99N/A (N/A/63%)0 .. 20,0000%00:00 (00:00)
21 Prince of Persia Dec 10, 2008 $9.99N/A (N/A/82%)200,000 .. 500,0000%00:00 (00:00)
22 Watchmen: The End is Nigh Mar 4, 2009 $4.99N/A (N/A/61%)20,000 .. 50,0000%00:00 (00:00)
23 Watchmen: The End is Nigh Part 2 Jul 29, 2009 $4.99N/A (N/A/44%)20,000 .. 50,0000%00:00 (00:00)
24 Bionic Commando Jul 28, 2009 $9.99N/A (N/A/69%)200,000 .. 500,0000%00:00 (00:00)
25 Bionic Commando: Rearmed Aug 14, 2008 $9.99N/A (N/A/86%)200,000 .. 500,0000%00:00 (00:00)
26 Alien Breed: Impact Jun 3, 2010 $2.29N/A (N/A/64%)200,000 .. 500,0001.69%02:03 (00:41)
27 Alien Breed 2: Assault Sep 22, 2010 $2.29N/A (N/A/63%)500,000 .. 1,000,0000%00:00 (00:00)
28 Blacklight: Tango Down Jul 14, 2010 N/AN/A (N/A/65%)50,000 .. 100,0000%00:00 (00:00)
29 Twin Sector Sep 16, 2009 $4.99N/A (N/A)50,000 .. 100,0000%00:00 (00:00)
30 Booster Trooper Apr 16, 2010 $1.99N/A (N/A)50,000 .. 100,0000%00:00 (00:00)
31 Dead Horde Jul 27, 2011 $5.99N/A (N/A)50,000 .. 100,0007.69%00:01 (00:00)
32 Sam & Max 301: The Penal Zone Dec 14, 1990 $9.99N/A (N/A)100,000 .. 200,0000%00:00 (00:00)
33 Iron Grip: Warlord Dec 5, 2008 N/AN/A (N/A/59%)100,000 .. 200,0000%00:00 (00:00)
34 Delta Force Land Warrior Nov 7, 2000 $9.99N/A (N/A/74%)50,000 .. 100,0000%00:00 (00:00)
35 Delta Force: Task Force Dagger Jun 27, 2002 $9.99N/A (N/A/51%)20,000 .. 50,0000%00:00 (00:00)
36 Delta Force: Black Hawk Down Mar 24, 2003 N/AN/A (N/A/77%)100,000 .. 200,0000%00:00 (00:00)
37 Alien Shooter: Revisited Apr 15, 2009 $4.99N/A (N/A)200,000 .. 500,0000%00:00 (00:00)
38 Zombie Shooter May 27, 2009 $4.99N/A (N/A)100,000 .. 200,0000%00:00 (00:00)
39 Zombie Shooter 2 Sep 23, 2009 $9.99N/A (N/A)100,000 .. 200,0000%00:00 (00:00)
40 SEGA Mega Drive and Genesis Classics Jun 1, 2010 $24.79N/A (N/A)1,000,000 .. 2,000,0000.47%00:02 (00:01)
41 Foreign Legion: Buckets of Blood Aug 4, 2009 $3.99N/A (N/A)100,000 .. 200,0000%00:00 (00:00)
42 Kingpin — Life of Crime Jun 1, 1999 $9.99N/A (N/A)20,000 .. 50,0000%00:00 (00:00)
43 Painkiller: Resurrection Oct 27, 2009 $9.99N/A (N/A/38%)100,000 .. 200,0000%00:00 (00:00)
44 AquaNox Nov 30, 2001 $4.99N/A (N/A/67%)100,000 .. 200,0000%00:00 (00:00)
45 AquaNox 2: Revelation Aug 19, 2003 $4.99N/A (N/A/59%)50,000 .. 100,0000%00:00 (00:00)
46 Chaser Aug 22, 2003 $4.99N/A (N/A/66%)100,000 .. 200,0000%00:00 (00:00)
47 DogFighter Jun 14, 2010 $0.99N/A (N/A)100,000 .. 200,0000%00:00 (00:00)
48 Wasteland Angel Sep 1, 2011 $4.99N/A (N/A)50,000 .. 100,0000%00:00 (00:00)
49 Plain Sight Apr 5, 2010 $4.99N/A (N/A/76%)50,000 .. 100,0000%00:00 (00:00)
50 NyxQuest: Kindred Spirits Sep 27, 2010 $2.99N/A (N/A)20,000 .. 50,0000%00:00 (00:00)
51 The First Templar - Steam Special Edition May 12, 2011 $9.99N/A (N/A/57%)100,000 .. 200,0000%00:00 (00:00)
52 Who's That Flying?! Jan 31, 2011 $5.99N/A (N/A/76%)20,000 .. 50,0000%00:00 (00:00)
53 Painkiller Redemption Feb 25, 2011 $4.99N/A (N/A/43%)50,000 .. 100,0000%00:00 (00:00)
54 Xotic Sep 16, 2011 $9.99N/A (N/A/67%)50,000 .. 100,0000%00:00 (00:00)
55 Shadow Harvest: Phantom Ops Apr 5, 2011 $9.99N/A (N/A/34%)20,000 .. 50,0000%00:00 (00:00)
56 Capsized Apr 29, 2011 $9.99N/A (N/A/80%)200,000 .. 500,0000%00:00 (00:00)
57 Garshasp: The Monster Slayer May 9, 2011 $4.99N/A (N/A/49%)50,000 .. 100,0000%00:00 (00:00)
58 Garshasp: Temple of the Dragon Sep 24, 2012 $4.99N/A (N/A)20,000 .. 50,0000%00:00 (00:00)
59 Warp Mar 21, 2012 $9.99N/A (N/A)50,000 .. 100,0000%00:00 (00:00)
60 Alien Zombie Megadeath Oct 18, 2011 $4.99N/A (N/A)20,000 .. 50,0000%00:00 (00:00)
61 Bunch of Heroes Sep 21, 2011 $4.99N/A (N/A)100,000 .. 200,0000%00:00 (00:00)
62 Serious Sam Double D XXL Aug 30, 2011 $9.99N/A (N/A)200,000 .. 500,0000%00:00 (00:00)
63 Global Ops: Commando Libya Oct 26, 2011 $4.99N/A (N/A/37%)50,000 .. 100,0000%00:00 (00:00)
64 Choplifter HD Jan 11, 2012 N/AN/A (N/A/65%)50,000 .. 100,0000%00:00 (00:00)
65 Scary Girl Apr 9, 2012 $6.99N/A (N/A)20,000 .. 50,0000%00:00 (00:00)
66 Sonic the Hedgehog 4 - Episode II May 15, 2012 $9.99N/A (N/A/54%)100,000 .. 200,0000%00:00 (00:00)
67 Deep Black: Reloaded Apr 17, 2012 N/AN/A (N/A/39%)20,000 .. 50,0000%00:00 (00:00)
68 Foreign Legion: Multi Massacre Jul 9, 2012 $4.99N/A (N/A)50,000 .. 100,0000%00:00 (00:00)
69 Painkiller: Recurring Evil Feb 29, 2012 $9.99N/A (N/A/38%)100,000 .. 200,0000%00:00 (00:00)
70 Noitu Love 2: Devolution Apr 23, 2012 $4.99N/A (N/A/80%)20,000 .. 50,0000%00:00 (00:00)
71 Sacred Citadel Apr 16, 2013 $9.99N/A (N/A/61%)500,000 .. 1,000,0000%00:00 (00:00)
72 Blades of Time Apr 20, 2012 $9.99N/A (N/A/63%)200,000 .. 500,0000%00:00 (00:00)
73 Cannon Fodder 3 Aug 6, 2012 $14.99N/A (N/A/49%)20,000 .. 50,0000%00:00 (00:00)
74 Primal Fears Jan 8, 2013 $9.99N/A (N/A)50,000 .. 100,0000%00:00 (00:00)
75 Kung Fu Strike - The Warrior's Rise Jul 24, 2012 $9.99N/A (N/A)100,000 .. 200,0000%00:00 (00:00)
76 Inversion Jul 26, 2012 $9.99N/A (N/A)20,000 .. 50,0000%00:00 (00:00)
77 Intrusion 2 Sep 11, 2012 $9.99N/A (N/A/80%)200,000 .. 500,0000%00:00 (00:00)
78 Karateka Dec 3, 2012 $3.99N/A (N/A/48%)100,000 .. 200,0000%00:00 (00:00)
79 iBomber Attack Nov 1, 2012 $5.99N/A (N/A)20,000 .. 50,0000%00:00 (00:00)
80 NiGHTS Into Dreams Dec 17, 2012 $7.99N/A (N/A)200,000 .. 500,0000%00:00 (00:00)
81 Miner Wars 2081 Nov 28, 2012 $4.99N/A (N/A/52%)50,000 .. 100,0000%00:00 (00:00)
82 LocoCycle Feb 14, 2014 $9.99N/A (N/A)20,000 .. 50,0000%00:00 (00:00)
83 Dragon's Lair Jun 19, 1983 $9.99N/A (N/A)50,000 .. 100,0000%00:00 (00:00)
84 Thunder Wolves May 15, 2013 $9.99N/A (N/A/69%)50,000 .. 100,0000%00:00 (00:00)
85 Strike Suit Infinity Apr 30, 2013 $6.99N/A (N/A/66%)100,000 .. 200,0000%00:00 (00:00)
86 The Apogee Throwback Pack Jul 1, 2013 $9.99N/A (N/A)200,000 .. 500,0000%00:00 (00:00)
87 Guncraft Aug 9, 2013 $14.99N/A (N/A/73%)100,000 .. 200,0000%00:00 (00:00)
88 Kill to Collect Apr 6, 2016 $9.99N/A (N/A/57%)20,000 .. 50,0000%00:00 (00:00)
89 The Chaos Engine Aug 29, 2013 $9.99N/A (N/A/40%)100,000 .. 200,0000%00:00 (00:00)
90 Blood Omen 2: Legacy of Kain Mar 29, 2002 $6.99N/A (N/A)200,000 .. 500,0000%00:00 (00:00)
91 Disney Epic Mickey 2: The Power of Two Nov 18, 2012 $19.99N/A (N/A)50,000 .. 100,0000%00:00 (00:00)
92 Strike Vector Jan 28, 2014 N/AN/A (N/A/73%)100,000 .. 200,0000%00:00 (00:00)
93 Shadow Man Mar 9, 1999 N/AN/A (N/A)20,000 .. 50,0000%00:00 (00:00)
94 YAIBA: NINJA GAIDEN Z Mar 21, 2014 $29.99N/A (N/A)50,000 .. 100,0000%00:00 (00:00)
95 Tiny Barbarian DX Dec 3, 2013 $29.99N/A (N/A)20,000 .. 50,0000%00:00 (00:00)
96 Hot Tin Roof: The Cat That Wore A Fedora Feb 20, 2015 $14.99N/A (N/A/66%)100,000 .. 200,0000%00:00 (00:00)
97 Alone in the Dark (2008) Nov 18, 2008 $9.99N/A (N/A/55%)50,000 .. 100,0000%00:00 (00:00)
98 Aces Wild: Manic Brawling Action! Jan 31, 2014 $9.99N/A (N/A)50,000 .. 100,0000%00:00 (00:00)
99 Tango Fiesta Sep 24, 2015 $9.99N/A (N/A)20,000 .. 50,0000%00:00 (00:00)
100 Eterium Apr 15, 2014 N/AN/A (N/A)50,000 .. 100,0000%00:00 (00:00)
101 Ubersoldier II Jul 22, 2008 $9.99N/A (N/A/62%)100,000 .. 200,0000%00:00 (00:00)
102 Explodemon Nov 3, 2011 $0.89N/A (N/A)20,000 .. 50,0000%00:00 (00:00)
103 Stick 'Em Up 2: Paper Adventures Jul 27, 2015 $2.99N/A (N/A)20,000 .. 50,0000%00:00 (00:00)
104 House of the Dying Sun Nov 1, 2016 $5.99N/A (N/A/76%)100,000 .. 200,0000%00:00 (00:00)
105 Majestic Nights Oct 30, 2014 $4.99N/A (N/A/32%)20,000 .. 50,0000%00:00 (00:00)
106 Project Root May 1, 2014 $9.99N/A (N/A)20,000 .. 50,0000%00:00 (00:00)
107 El Matador Sep 25, 2006 $3.99N/A (N/A/54%)50,000 .. 100,0000%00:00 (00:00)
108 Elliot Quest Nov 10, 2014 $9.99N/A (N/A)20,000 .. 50,0000%00:00 (00:00)
109 Dark Raid Jun 3, 2014 $3.99N/A (N/A)20,000 .. 50,0000%00:00 (00:00)
110 Putt-Putt Saves The Zoo Dec 31, 1995 $6.99N/A (N/A)20,000 .. 50,0000%00:00 (00:00)
111 Beyond Space Remastered Edition Jun 16, 2014 N/AN/A (N/A)20,000 .. 50,0000%00:00 (00:00)
112 Chernobyl Commando Mar 8, 2013 N/AN/A (N/A)50,000 .. 100,0000%00:00 (00:00)
113 Manhunter Jan 29, 2013 N/AN/A (N/A)100,000 .. 200,0000%00:00 (00:00)
114 The Way May 20, 2016 $14.99N/A (N/A/67%)100,000 .. 200,0000%00:00 (00:00)
115 OCEAN CITY RACING Aug 27, 2016 $1.99N/A (N/A)100,000 .. 200,0000%00:00 (00:00)
116 Vertical Drop Heroes HD Jul 25, 2014 $6.99N/A (N/A/70%)100,000 .. 200,0000%00:00 (00:00)
117 Obludia Jul 18, 2014 $2.99N/A (N/A)20,000 .. 50,0000%00:00 (00:00)
118 Disney Alice in Wonderland Mar 2, 2010 $19.99N/A (N/A/63%)20,000 .. 50,0000%00:00 (00:00)
119 Disney G-Force Jul 21, 2009 $19.99N/A (N/A/61%)0 .. 20,0000%00:00 (00:00)
120 Raiden IV: OverKill Sep 3, 2015 N/AN/A (N/A)50,000 .. 100,0000%00:00 (00:00)
121 Deer Hunt Legends Jan 7, 2013 $4.99N/A (N/A)0 .. 20,0000%00:00 (00:00)
122 Down To One Jan 7, 2016 $0.99N/A (N/A)200,000 .. 500,0000%00:00 (00:00)
123 Raptor: Call of The Shadows - 2015 Edition Apr 1, 1994 $4.99N/A (N/A)50,000 .. 100,0000%00:00 (00:00)
124 ABRACA - Imagic Games Mar 31, 2016 $14.99N/A (N/A)0 .. 20,0000%00:00 (00:00)
125 On My Own Feb 26, 2016 $7.99N/A (N/A)0 .. 20,0000%00:00 (00:00)
126 Cobalt Feb 2, 2016 $14.99N/A (N/A/69%)20,000 .. 50,0000%00:00 (00:00)
127 Hocus Pocus May 5, 2014 $4.99N/A (N/A)20,000 .. 50,0000%00:00 (00:00)
128 Stargunner Nov 19, 1996 FreeN/A (N/A)20,000 .. 50,0000%00:00 (00:00)
129 Rise of the Triad: Dark War Dec 21, 1994 $6.99N/A (N/A)20,000 .. 50,0000%00:00 (00:00)
130 Mega Man Legacy Collection Aug 24, 2015 $14.99N/A (N/A/85%)200,000 .. 500,0000%00:00 (00:00)
131 METAL SLUG 2 Apr 14, 2016 $6.99N/A (N/A)100,000 .. 200,0000%00:00 (00:00)
132 SHOCK TROOPERS May 18, 2016 $7.99N/A (N/A)20,000 .. 50,0000%00:00 (00:00)
133 Grey Cubes May 15, 2015 N/AN/A (N/A)50,000 .. 100,0000%00:00 (00:00)
134 Kung Fury: Street Rage May 28, 2015 N/AN/A (N/A)200,000 .. 500,0000%00:00 (00:00)
135 ESCHATOS Sep 18, 2015 $14.99N/A (N/A)0 .. 20,0000%00:00 (00:00)
136 Cruel Arena Aug 18, 2015 $0.99N/A (N/A)200,000 .. 500,0000%00:00 (00:00)
137 Glass Wing Jun 24, 2015 FreeN/A (N/A)50,000 .. 100,0000%00:00 (00:00)
138 Zanzarah: The Hidden Portal Aug 20, 2015 $7.99N/A (N/A)200,000 .. 500,0000%00:00 (00:00)
139 Square Brawl Oct 22, 2015 $4.99N/A (N/A)20,000 .. 50,0000%00:00 (00:00)
140 Twinsen's Little Big Adventure Classic Oct 14, 1994 $9.99N/A (N/A)50,000 .. 100,0000%00:00 (00:00)
141 Black & White Bushido Oct 2, 2015 $12.99N/A (N/A)20,000 .. 50,0000%00:00 (00:00)
142 Mytheon Dec 8, 2015 $4.99N/A (N/A)0 .. 20,0000%00:00 (00:00)
143 LASTFIGHT May 19, 2016 $14.99N/A (N/A)0 .. 20,0000%00:00 (00:00)
144 Skylar & Plux: Adventure On Clover Island May 19, 2017 N/AN/A (N/A)20,000 .. 50,0000%00:00 (00:00)
145 Zenodyne R May 29, 2016 $9.99N/A (N/A)0 .. 20,0000%00:00 (00:00)
146 Versus: Battle of the Gladiator Aug 26, 2016 N/AN/A (N/A)50,000 .. 100,0000%00:00 (00:00)
147 Phantaruk Aug 16, 2016 $4.99N/A (N/A/53%)20,000 .. 50,0000%00:00 (00:00)
148 Yomawari: Night Alone Oct 25, 2016 $3.99N/A (N/A)50,000 .. 100,0000%00:00 (00:00)
149 Scrap Garden - The Day Before Oct 7, 2016 FreeN/A (N/A)200,000 .. 500,0000%00:00 (00:00)
150 THOTH Oct 7, 2016 $4.99N/A (N/A)50,000 .. 100,0000%00:00 (00:00)
151 Unbox: Newbie's Adventure Sep 5, 2016 $19.99N/A (N/A/68%)50,000 .. 100,0000%00:00 (00:00)
152 Crewsaders Nov 17, 2016 $2.99N/A (N/A)20,000 .. 50,0000%00:00 (00:00)
153 Deus Ex: Breach Jan 24, 2017 FreeN/A (N/A)100,000 .. 200,0000%00:00 (00:00)
154 STAR WARS SHADOWS OF THE EMPIRE Feb 7, 2017 $5.99N/A (N/A)50,000 .. 100,0000%00:00 (00:00)
155 PLANETS OF WAR Jun 30, 2017 $0.99N/A (N/A)20,000 .. 50,0000%00:00 (00:00)

Geography of active players over time, share:

Access restricted.

This feature is only available to users with special access rights. Sorry.

If you want to proceed, you need to register or log in first and then back Steam Spy on Patreon. Look for Indie or Pro pledge.

Don't forget to use the same email as on Steam Spy!

If you've recently backed Steam Spy on Patreon, please note, that it might take around 15 minutes for your access rights to sync. In most cases you'll need to re-login on Steam Spy too.

Tags over time:

Access restricted.

This feature is only available to users with special access rights. Sorry.

If you want to proceed, you need to register or log in first and then back Steam Spy on Patreon. Look for Indie or Pro pledge.

Don't forget to use the same email as on Steam Spy!

If you've recently backed Steam Spy on Patreon, please note, that it might take around 15 minutes for your access rights to sync. In most cases you'll need to re-login on Steam Spy too.

Owners of this game also own:

Access restricted.

This feature is only available to users with special access rights. Sorry.

If you want to proceed, you need to register or log in first and then back Steam Spy on Patreon. Look for Indie or Pro pledge.

Don't forget to use the same email as on Steam Spy!

If you've recently backed Steam Spy on Patreon, please note, that it might take around 15 minutes for your access rights to sync. In most cases you'll need to re-login on Steam Spy too.

Playtime distribution:

Access restricted.

This feature is only available to users with special access rights. Sorry.

If you want to proceed, you need to register or log in first and then back Steam Spy on Patreon. Look for Indie or Pro pledge.

Don't forget to use the same email as on Steam Spy!

If you've recently backed Steam Spy on Patreon, please note, that it might take around 15 minutes for your access rights to sync. In most cases you'll need to re-login on Steam Spy too.

Playtime (2 weeks):

Access restricted.

This feature is only available to users with special access rights. Sorry.

If you want to proceed, you need to register or log in first and then back Steam Spy on Patreon. Look for Indie or Pro pledge.

Don't forget to use the same email as on Steam Spy!

If you've recently backed Steam Spy on Patreon, please note, that it might take around 15 minutes for your access rights to sync. In most cases you'll need to re-login on Steam Spy too.

User reviews:

Login required.

Please register or log in to see this information.